Main page
METAR-TAF:

METAR-TAF

Airports :

Çiğli Air Base

Izmir, Turkey

latitude: 38-30N, longitude: 027-01E, elevation: 5 m

METAR: missing

Time: 05:46 (02:46 UTC)

Forecast

The report was made 1 hour and 6 minutes ago, at 01:40 UTC
Forecast valid from 18 at 03 UTC to 18 at 12 UTC
Wind 2 kt from variable directions
Visibility 10 km or more
no clouds below 1500 m and no cumulonimbus
Becoming
from 18 at 06 UTC to 18 at 09 UTC
Scattered clouds at a height of 3500 ft

TAF: LTBL 180140Z 1803/1812 VRB02KT CAVOK BECMG 1806/1809 SCT035

Weather observations and forecasts of more than 4000 airports (METAR and TAF reports).

The available stations are represented by yellow and red dots on the map.

Hover mouse over dot to see the name of the station.

Then click to see weather observations and forecasts.

To change the map : click on the green buttons with a black cross to zoom in, on the green button with a dash to zoom out, or on the green arrows for adjacent maps.


METAR-TAF: